Home   Weather   Pontiac   Past weeks

Flag for USA Past Weather in Pontiac, Michigan, USA — Yesterday and Last 2 Weeks

Now
37 °F

Fog.


Feels Like: 37 °F
Forecast: 44 / 50 °F
Wind: No wind

Location: Oakland County International Airport

Current Time: Jan 22, 2017 at 2:59:07 am

Latest Report: Jan 22, 2017 at 1:53 am


Visibility: 0 mi

Pressure: 29.60 "Hg

Humidity: 93%

Dew Point: 35 °F

Location of PontiacLocation

Past Weather in Pontiac — Graph

°F

Pontiac Temperature Yesterday

Maximum temperature yesterday: 50 °F (at 3:53 pm)
Minimum temperature yesterday: 39 °F (at 12:53 am)
Average temperature yesterday: 44 °F

High & Low Weather Summary for the Past Weeks

 TemperatureHumidityPressure
High50 °F (Jan 21, 3:53 pm)100% (Jan 21, 1:53 pm)30.78 "Hg (Jan 21, 1:53 pm)
Low2 °F (Jan 7, 5:53 am)56% (Jan 8, 12:53 pm)29.38 "Hg (Jan 10, 7:53 pm)
Average29 °F84%30.07 "Hg
* Reported Jan 7 1:53 am — Jan 22 1:53 am, Pontiac, Weather by CustomWeather, © 2017

Note: Actual official high and low records may vary slightly from our data, if they occured in-between our weather recording intervals... More about our weather records

Advertising

Pontiac Weather History for the Previous 24 Hours

Scroll right to see more
 ConditionsComfort  
Time TempWeatherWind HumidityBarometerVisibility
1:53 am
Sun, Jan 22
37 °FFog.No wind93%29.60 "Hg0 mi
12:53 am40 °FFog.No wind93%29.61 "Hg0 mi
12:06 am40 °FFog.No wind97%29.60 "Hg0 mi
11:53 pm
Sat, Jan 21
41 °FFog.No wind93%29.62 "Hg0 mi
11:10 pm41 °FFog.No wind93%29.61 "Hg0 mi
10:53 pm43 °FFog.No wind93%29.62 "Hg0 mi
10:05 pm44 °FFog.No wind96%29.61 "Hg0 mi
9:53 pm46 °FFog.3 mph89%29.62 "Hg1 mi
9:37 pm46 °FFog.3 mph93%29.61 "Hg1 mi
9:17 pm47 °FFog.6 mph93%29.60 "Hg1 mi
8:53 pm47 °FFog.5 mph93%29.61 "Hg1 mi
8:26 pm48 °FFog.5 mph89%29.60 "Hg1 mi
8:14 pm47 °FFog.6 mph93%29.60 "Hg1 mi
7:53 pm47 °FFog.6 mph93%29.61 "Hg1 mi
6:53 pm47 °FFog.6 mph93%29.61 "Hg2 mi
5:53 pm48 °FFog.5 mph93%29.60 "Hg2 mi
5:44 pm48 °FFog.6 mph93%29.59 "Hg2 mi
4:53 pm50 °FFog.6 mph93%29.59 "Hg2 mi
3:53 pm50 °FFog.5 mph96%29.59 "Hg2 mi
3:32 pm49 °FFog.3 mph97%29.59 "Hg1 mi
3:04 pm48 °FFog.6 mph96%29.59 "Hg1 mi
1:53 pm47 °FFog.5 mph100%29.62 "Hg0 mi
12:53 pm47 °FFog.5 mph97%29.63 "Hg0 mi
11:53 am45 °FFog.3 mph97%29.65 "Hg0 mi
10:53 am43 °FFog.5 mph97%29.69 "Hg0 mi
9:53 am40 °FFog.3 mph97%29.68 "Hg0 mi
8:53 am39 °FFog.No wind96%29.69 "Hg0 mi
7:53 am39 °FFog.3 mph93%29.70 "Hg0 mi
6:53 am40 °FFog.3 mph93%29.71 "Hg0 mi
5:53 am40 °FFog.6 mph93%29.70 "Hg0 mi
4:53 am40 °FFog.3 mph93%29.72 "Hg0 mi
3:53 am39 °FFog.3 mph93%29.73 "Hg0 mi
2:53 am39 °FFog.No wind93%29.75 "Hg0 mi
Weather by CustomWeather, © 2017

See weather overviewHow to use our weather pages